Regional Weather Roundup
Issued by NWS

Home | Current Version | Previous Version | Text Only | Print | Product List | Glossary Off
Versions: 1 2 3 4 5 6 7 8 9 10 11 12 13 14 15 16 17 18 19 20 21 22 23 24 25 26 27 28 29 30 31 32 33 34 35 36 37 38 39 40 41 42 43 44 45 46

000
ASUS45 KCYS 030310
RWRWY

WYOMING REGIONAL WEATHER ROUNDUP
NATIONAL WEATHER SERVICE CHEYENNE WY
900 PM MDT SUN AUG 02 2015

NOTE:  "FAIR" INDICATES FEW OR NO CLOUDS BELOW 12,000 FEET
WITH NO SIGNIFICANT WEATHER AND/OR OBSTRUCTIONS TO VISIBILITY.

WYZ001-030400-
YELLOWSTONE NATIONAL PARK

CITY           SKY/WX    TMP DP  RH WIND       PRES   REMARKS
LK YELLOWSTONE   N/A     59  40  49 CALM      30.25S
W YELLOWSTONE  NOT AVBL

$$
WYZ002>013-054>058-071-098>099-030400-
NORTHERN WYOMING

CITY           SKY/WX    TMP DP  RH WIND       PRES   REMARKS
JACKSON        NOT AVBL
CODY           FAIR      75  39  27 NW6       30.07S
GREYBULL       FAIR      85  33  15 NW18      29.93R
WORLAND        FAIR      76  41  28 NE6       29.94S
SHERIDAN       FAIR      72  44  36 SE6       30.01R
BUFFALO        FAIR      70  43  37 W9        30.09S
GILLETTE       FAIR      73  48  41 E6        30.05R
HULETT         FAIR      72  48  43 E3        30.07R
NEWCASTLE      FAIR      72  50  46 SE5       30.04R

$$
WYZ014>020-022>026-101>103-030400-
CENTRAL WYOMING

CITY           SKY/WX    TMP DP  RH WIND       PRES   REMARKS
BIG PINEY      FAIR      77  25  14 SE5       30.14S
PINEDALE       FAIR      72  30  21 CALM      30.17R
DUBOIS         FAIR      72  25  17 SE7       30.19R
LANDER         FAIR      78  28  16 W12       30.04R
RIVERTON       FAIR      81  23  11 NE10      30.04F
CASPER         FAIR      79  34  19 NE13      30.05R
DOUGLAS        FAIR      78  41  26 SE9       30.03R

$$
WYZ021-027>030-104>119-030400-
SOUTHERN WYOMING

CITY           SKY/WX    TMP DP  RH WIND       PRES   REMARKS
EVANSTON       FAIR      70  41  34 SW16      30.16R
KEMMERER       FAIR     N/A N/A N/A CALM      30.15R
FORT BRIDGER   CLEAR     75  37  25 SW13      30.18S
ROCK SPRINGS   FAIR      76  32  20 SW8       30.11S
DIXON          FAIR      76  42  30 SE10G17   30.17R
RAWLINS        FAIR      77  26  15 CALM      30.14R
SARATOGA       FAIR      72  36  26 SE5       30.16S
LARAMIE        FAIR      67  40  37 SE8       30.20R
CHEYENNE       FAIR      73  49  42 S8        30.14R
TORRINGTON     FAIR      75  55  49 E8        29.98R
PINE BLUFFS    FAIR      72  46  40 SE7       30.07S

$$



USA.gov is the U.S. government's official web portal to all federal, state and local government web resources and services.